Temp
-23 -23 -24 -26 -27 -27 -27 -27 -27 -27 -27 -26 -26 -26 -26 -27 -27 -26 -26 -26 -26 -25 -26 -25 -25 -24 -23 -22 -22 -21 -21 -20 -19 -18 -18 -17 -17 -16 -16 -15 -13 -12 -12 -12 -13 -12 -11 -10 -10 -10 -11 -11 -10 -11
-23 -24 -24 -25 -25 -26 -26 -26 -26 -26 -27 -27 -27 -27 -27 -27 -27 -27 -27 -27 -26 -25 -26 -25 -24 -24 -23 -22 -22 -21 -20 -20 -19 -19 -17 -17 -16 -16 -15 -14 -14 -13 -12 -12 -13 -12 -12 -12 -11 -10 -11 -11 -11 -11
-24 -24 -24 -25 -25 -26 -26 -26 -26 -26 -26 -26 -27 -27 -27 -27 -27 -27 -27 -27 -26 -26 -25 -25 -25 -24 -23 -23 -22 -21 -20 -19 -20 -18 -17 -16 -15 -14 -14 -13 -13 -14 -13 -13 -12 -11 -11 -12 -11 -12 -11 -11 -11 -11
-24 -24 -25 -25 -25 -25 -25 -25 -26 -26 -26 -26 -26 -26 -26 -26 -26 -26 -26 -26 -25 -25 -25 -25 -24 -24 -23 -23 -22 -21 -21 -20 -19 -18 -17 -16 -14 -13 -14 -12 -11 -12 -13 -13 -13 -11 -11 -11 -11 -11 -11 -10 -11 -11
-24 -24 -24 -24 -25 -25 -25 -25 -25 -26 -26 -26 -26 -26 -26 -26 -26 -25 -25 -25 -25 -24 -24 -24 -24 -23 -23 -23 -22 -21 -21 -20 -19 -18 -17 -16 -15 -15 -14 -11 -12 -10 -12 -11 -11 -10 -11 -12 -12 -11 -11 -10 -10 -11
-24 -24 -24 -24 -24 -25 -25 -25 -25 -25 -25 -25 -25 -25 -25 -25 -25 -25 -25 -24 -24 -24 -24 -23 -23 -23 -23 -22 -21 -21 -20 -19 -19 -17 -17 -16 -15 -15 -14 -14 -13 -12 -12 -12 -11 -11 -12 -11 -11 -11 -11 -10 -10 -11
-24 -24 -24 -24 -24 -25 -25 -25 -25 -25 -25 -25 -25 -25 -25 -25 -24 -24 -24 -24 -23 -23 -23 -23 -22 -22 -22 -22 -21 -21 -20 -19 -18 -17 -17 -16 -16 -15 -15 -14 -15 -14 -13 -13 -12 -12 -12 -12 -11 -11 -10 -10 -11 -11
-23 -23 -23 -24 -24 -25 -25 -25 -25 -25 -25 -24 -24 -24 -24 -24 -24 -24 -24 -23 -23 -23 -23 -22 -21 -21 -22 -21 -21 -21 -19 -19 -18 -17 -17 -16 -15 -15 -15 -15 -15 -14 -13 -13 -13 -13 -12 -12 -12 -12 -11 -11 -12 -11
-23 -23 -23 -23 -23 -24 -24 -24 -24 -24 -24 -24 -24 -24 -24 -24 -24 -24 -23 -23 -23 -22 -22 -22 -22 -21 -21 -20 -20 -19 -19 -19 -18 -17 -17 -15 -15 -14 -14 -14 -15 -14 -14 -13 -13 -12 -12 -12 -12 -12 -11 -11 -11 -11
-22 -22 -23 -23 -23 -23 -23 -23 -23 -23 -23 -23 -24 -24 -24 -23 -23 -23 -22 -22 -22 -22 -21 -21 -21 -21 -20 -20 -20 -19 -19 -18 -17 -17 -16 -15 -14 -14 -15 -15 -14 -14 -14 -13 -13 -12 -12 -11 -12 -12 -11 -11 -11 -11
-21 -22 -22 -22 -23 -23 -23 -23 -23 -23 -23 -23 -24 -23 -23 -23 -22 -22 -22 -21 -21 -21 -21 -21 -20 -20 -19 -19 -18 -18 -18 -17 -17 -16 -16 -16 -15 -15 -15 -15 -14 -14 -14 -14 -13 -12 -13 -13 -12 -12 -11 -11 -12 -11
-21 -21 -22 -22 -22 -23 -23 -23 -23 -23 -23 -23 -23 -23 -23 -22 -21 -22 -21 -21 -20 -19 -20 -20 -20 -20 -19 -18 -18 -18 -17 -17 -16 -16 -16 -16 -15 -15 -15 -15 -14 -14 -14 -14 -13 -13 -13 -13 -13 -13 -12 -12 -12 -12
-21 -21 -22 -22 -22 -22 -22 -22 -22 -22 -22 -22 -22 -22 -22 -22 -22 -21 -21 -21 -20 -20 -20 -20 -19 -19 -18 -18 -17 -16 -17 -17 -16 -16 -16 -16 -16 -16 -15 -14 -14 -14 -14 -14 -14 -14 -15 -13 -13 -13 -12 -12 -13 -14
-21 -21 -21 -21 -21 -21 -21 -21 -21 -21 -22 -21 -21 -21 -21 -21 -21 -21 -21 -21 -20 -19 -19 -19 -19 -19 -19 -18 -18 -17 -16 -16 -17 -16 -17 -16 -16 -16 -15 -15 -15 -14 -14 -14 -14 -13 -13 -14 -15 -15 -15 -14 -15 -15
-21 -21 -21 -21 -21 -21 -21 -21 -21 -22 -22 -21 -21 -21 -21 -21 -21 -21 -21 -21 -20 -20 -20 -20 -19 -19 -19 -18 -18 -17 -17 -17 -17 -17 -16 -17 -17 -16 -16 -15 -15 -15 -14 -14 -14 -14 -14 -15 -16 -15 -15 -15 -15 -15
-20 -20 -21 -21 -21 -21 -21 -21 -21 -21 -21 -21 -21 -21 -21 -21 -21 -21 -21 -20 -19 -20 -19 -20 -19 -18 -18 -18 -18 -17 -17 -17 -17 -17 -17 -17 -17 -16 -17 -17 -16 -16 -15 -15 -15 -14 -16 -16 -14 -14 -14 -14 -14 -14
-20 -20 -20 -20 -21 -21 -21 -21 -21 -21 -22 -21 -21 -21 -21 -21 -21 -20 -20 -19 -20 -20 -19 -19 -19 -18 -18 -18 -18 -17 -17 -17 -17 -17 -17 -17 -17 -17 -17 -17 -17 -17 -17 -16 -16 -17 -16 -16 -16 -15 -15 -14 -14 -15
-19 -19 -20 -20 -20 -20 -20 -20 -21 -21 -21 -21 -21 -22 -21 -21 -20 -20 -19 -19 -19 -19 -19 -19 -19 -18 -18 -18 -18 -18 -17 -17 -17 -17 -17 -17 -17 -17 -17 -17 -17 -17 -17 -17 -16 -16 -17 -16 -16 -16 -16 -16 -15 -15
-19 -19 -20 -20 -20 -20 -20 -20 -20 -20 -20 -21 -20 -21 -21 -21 -20 -20 -19 -19 -19 -19 -19 -19 -18 -18 -18 -18 -18 -17 -18 -17 -17 -17 -17 -17 -17 -17 -17 -17 -17 -17 -18 -18 -17 -17 -17 -17 -17 -16 -16 -16 -16 -15
-19 -19 -19 -19 -19 -20 -20 -20 -20 -20 -20 -20 -20 -20 -20 -20 -20 -20 -20 -20 -20 -20 -19 -19 -19 -18 -18 -18 -18 -18 -18 -18 -18 -18 -18 -18 -18 -18 -18 -19 -19 -18 -18 -18 -17 -17 -17 -17 -17 -17 -17 -17 -17 -17
-19 -19 -19 -19 -19 -19 -19 -20 -20 -20 -20 -20 -20 -20 -20 -20 -20 -20 -20 -19 -20 -20 -19 -19 -19 -19 -19 -19 -18 -18 -18 -18 -18 -18 -18 -19 -18 -18 -18 -18 -18 -18 -18 -18 -18 -18 -18 -18 -18 -18 -17 -17 -17 -17
-18 -19 -19 -19 -19 -19 -19 -19 -19 -19 -19 -19 -19 -19 -19 -19 -19 -19 -19 -19 -19 -19 -19 -19 -19 -19 -19 -19 -19 -19 -19 -19 -19 -19 -19 -19 -19 -18 -19 -19 -18 -18 -18 -18 -18 -18 -18 -18 -18 -18 -18 -18 -17 -17
-19 -19 -19 -19 -18 -19 -19 -19 -19 -19 -19 -19 -19 -19 -19 -19 -19 -19 -19 -19 -19 -19 -19 -19 -19 -19 -19 -19 -19 -19 -19 -19 -19 -19 -19 -19 -19 -19 -19 -19 -18 -18 -18 -18 -18 -18 -18 -18 -18 -18 -18 -17 -17 -17
-19 -19 -19 -18 -18 -19 -19 -19 -19 -19 -19 -20 -19 -19 -19 -19 -19 -19 -19 -19 -19 -19 -20 -20 -19 -19 -19 -19 -19 -19 -19 -19 -19 -19 -19 -19 -19 -19 -19 -19 -19 -19 -19 -19 -18 -18 -18 -18 -18 -18 -18 -18 -18 -18
-19 -19 -19 -19 -19 -19 -19 -19 -19 -19 -19 -19 -19 -19 -19 -19 -19 -19 -19 -19 -19 -19 -19 -19 -19 -19 -19 -19 -19 -19 -19 -19 -19 -19 -19 -19 -19 -19 -19 -19 -18 -18 -19 -18 -18 -18 -18 -18 -18 -18 -18 -18 -18 -19
-18 -19 -19 -19 -19 -19 -19 -19 -19 -19 -19 -19 -19 -19 -19 -19 -19 -19 -19 -20 -20 -19 -19 -19 -19 -19 -19 -19 -19 -19 -19 -19 -19 -19 -19 -19 -19 -19 -19 -19 -19 -19 -19 -18 -19 -19 -19 -19 -19 -19 -19 -19 -19 -19
-18 -19 -19 -19 -19 -19 -19 -19 -19 -19 -19 -19 -19 -19 -19 -19 -19 -19 -19 -19 -19 -19 -19 -19 -19 -20 -20 -20 -20 -20 -20 -20 -20 -20 -19 -19 -19 -19 -20 -19 -19 -20 -19 -19 -19 -19 -19 -19 -19 -19 -19 -20 -20 -20
-19 -19 -19 -19 -19 -19 -19 -19 -19 -19 -19 -19 -19 -19 -19 -19 -19 -19 -19 -19 -19 -19 -20 -20 -20 -20 -19 -20 -20 -20 -20 -20 -20 -20 -20 -20 -19 -19 -20 -20 -19 -20 -20 -19 -20 -20 -20 -20 -20 -20 -20 -20 -20 -21
-19 -19 -19 -19 -19 -19 -19 -19 -19 -19 -19 -19 -19 -19 -19 -19 -19 -19 -19 -19 -19 -19 -20 -20 -21 -21 -21 -21 -20 -20 -20 -20 -20 -20 -21 -21 -21 -21 -21 -21 -21 -21 -21 -21 -20 -20 -21 -21 -21 -21 -22 -22 -22 -22
-19 -19 -19 -19 -19 -19 -19 -19 -19 -19 -19 -19 -19 -19 -19 -19 -19 -19 -20 -20 -20 -20 -20 -21 -21 -21 -21 -21 -21 -22 -21 -22 -22 -22 -22 -21 -21 -21 -21 -21 -21 -22 -22 -22 -22 -22 -22 -23 -23 -23 -23 -23 -23 -24
-18 -18 -18 -18 -18 -18 -18 -19 -19 -19 -19 -19 -19 -20 -20 -20 -20 -20 -20 -20 -20 -21 -21 -21 -22 -22 -22 -22 -23 -23 -23 -23 -23 -23 -23 -23 -23 -23 -23 -23 -23 -23 -23 -23 -23 -23 -23 -23 -23 -24 -24 -24 -24 -25
-18 -18 -18 -18 -18 -18 -18 -19 -19 -19 -19 -19 -19 -19 -20 -20 -20 -20 -21 -21 -21 -21 -22 -22 -22 -22 -22 -23 -23 -23 -23 -24 -23 -23 -23 -23 -23 -23 -23 -23 -23 -23 -23 -23 -23 -24 -24 -24 -24 -24 -25 -25 -25 -26
-18 -18 -18 -18 -18 -18 -18 -19 -19 -19 -19 -19 -20 -20 -20 -20 -21 -21 -21 -21 -22 -22 -22 -22 -22 -22 -22 -22 -22 -23 -23 -23 -23 -23 -23 -23 -23 -23 -23 -23 -23 -23 -24 -24 -24 -24 -24 -25 -25 -25 -25 -25 -26 -26
Height
5586 5572 5558 5545 5533 5525 5519 5516 5513 5512 5510 5509 5508 5506 5505 5505 5505 5505 5505 5506 5506 5507 5509 5509 5512 5517 5522 5528 5536 5544 5549 5554 5562 5574 5590 5599 5611 5624 5639 5652 5660 5668 5677 5684 5697 5705 5711 5708 5715 5720 5724 5727 5731 5734
5580 5568 5556 5544 5535 5527 5522 5517 5513 5510 5508 5506 5503 5502 5501 5500 5499 5499 5500 5499 5501 5503 5506 5505 5509 5514 5520 5525 5531 5534 5542 5550 5559 5571 5583 5593 5605 5615 5632 5640 5657 5663 5668 5681 5694 5697 5698 5701 5706 5709 5716 5720 5723 5726
5577 5565 5554 5545 5537 5529 5522 5517 5512 5509 5505 5503 5501 5499 5497 5496 5496 5496 5496 5497 5499 5500 5502 5504 5508 5512 5518 5523 5527 5533 5538 5544 5553 5563 5575 5591 5602 5615 5625 5637 5653 5662 5670 5675 5678 5678 5681 5690 5695 5703 5708 5710 5714 5719
5574 5564 5554 5545 5537 5530 5524 5518 5512 5508 5505 5502 5500 5498 5496 5495 5495 5495 5496 5497 5498 5500 5502 5504 5507 5512 5519 5524 5527 5531 5536 5543 5553 5563 5574 5587 5594 5599 5615 5631 5635 5643 5647 5666 5664 5663 5673 5680 5689 5696 5699 5700 5705 5708
5572 5562 5553 5546 5539 5532 5525 5518 5513 5510 5507 5504 5502 5500 5498 5497 5497 5496 5497 5498 5500 5503 5505 5508 5512 5515 5520 5525 5530 5533 5537 5543 5553 5562 5573 5583 5586 5599 5612 5608 5605 5622 5636 5645 5640 5654 5665 5675 5682 5686 5688 5689 5695 5700
5570 5562 5555 5548 5541 5533 5526 5521 5516 5513 5510 5508 5506 5504 5502 5502 5501 5501 5501 5501 5502 5505 5509 5512 5515 5520 5524 5527 5531 5534 5540 5547 5555 5563 5573 5581 5585 5592 5597 5605 5616 5621 5627 5633 5633 5651 5661 5666 5671 5677 5680 5681 5686 5692
5572 5565 5558 5551 5543 5536 5530 5525 5521 5518 5516 5513 5511 5510 5508 5507 5506 5505 5506 5506 5508 5511 5513 5517 5522 5524 5526 5529 5533 5538 5543 5550 5560 5568 5575 5582 5588 5594 5600 5605 5613 5621 5627 5636 5646 5651 5656 5659 5661 5665 5670 5674 5679 5685
5577 5570 5562 5554 5547 5540 5535 5531 5527 5524 5522 5519 5517 5516 5514 5512 5511 5512 5512 5513 5515 5517 5518 5521 5525 5527 5531 5534 5538 5542 5547 5555 5564 5570 5579 5587 5593 5595 5601 5607 5614 5622 5628 5636 5641 5647 5652 5655 5655 5657 5659 5663 5669 5675
5583 5575 5567 5560 5554 5547 5542 5538 5534 5531 5528 5526 5524 5522 5521 5520 5520 5520 5520 5521 5523 5526 5526 5527 5531 5532 5538 5542 5546 5547 5552 5558 5563 5573 5580 5586 5587 5591 5599 5607 5613 5619 5625 5633 5638 5642 5645 5648 5651 5648 5656 5659 5663 5666
5589 5581 5574 5567 5561 5555 5549 5545 5541 5538 5535 5534 5532 5531 5530 5528 5527 5527 5529 5532 5533 5534 5534 5536 5536 5537 5541 5543 5549 5555 5561 5565 5572 5579 5582 5586 5583 5591 5600 5606 5612 5617 5622 5628 5634 5638 5640 5640 5645 5647 5649 5657 5662 5663
5596 5589 5582 5575 5569 5563 5558 5554 5549 5546 5544 5542 5541 5539 5537 5536 5537 5538 5538 5539 5540 5541 5541 5542 5541 5544 5549 5553 5557 5563 5567 5572 5576 5580 5585 5588 5589 5593 5600 5606 5610 5615 5620 5626 5629 5629 5634 5634 5637 5638 5645 5649 5650 5655
5605 5598 5591 5585 5579 5573 5568 5563 5559 5555 5553 5552 5550 5549 5548 5547 5547 5547 5547 5547 5545 5547 5549 5550 5551 5553 5556 5559 5564 5569 5574 5579 5582 5583 5584 5588 5589 5596 5602 5607 5611 5616 5620 5625 5628 5631 5631 5631 5632 5635 5638 5642 5648 5652
5615 5608 5601 5594 5588 5582 5577 5573 5569 5565 5562 5560 5560 5558 5556 5554 5554 5552 5552 5554 5554 5555 5556 5558 5560 5563 5566 5562 5570 5575 5575 5579 5584 5585 5589 5591 5595 5597 5601 5606 5610 5614 5618 5622 5626 5629 5632 5631 5632 5635 5637 5639 5643 5646
5621 5616 5610 5603 5598 5592 5586 5581 5578 5574 5572 5569 5567 5566 5565 5563 5563 5562 5561 5560 5560 5561 5564 5567 5566 5565 5566 5568 5571 5576 5582 5585 5588 5589 5592 5594 5597 5599 5603 5607 5610 5613 5617 5621 5625 5626 5626 5631 5633 5634 5638 5641 5643 5646
5626 5621 5616 5611 5605 5599 5594 5589 5585 5582 5580 5578 5576 5573 5572 5571 5571 5569 5567 5567 5567 5567 5566 5569 5572 5573 5573 5575 5576 5580 5582 5584 5589 5592 5594 5598 5602 5605 5606 5608 5609 5613 5616 5619 5622 5624 5627 5628 5632 5635 5636 5639 5641 5643
5631 5626 5621 5616 5611 5605 5600 5595 5592 5589 5587 5583 5581 5580 5579 5578 5577 5575 5574 5574 5575 5575 5575 5576 5577 5579 5581 5582 5583 5584 5587 5590 5593 5597 5601 5603 5606 5609 5610 5611 5610 5612 5615 5617 5620 5624 5625 5627 5630 5633 5633 5636 5638 5639
5636 5631 5625 5621 5616 5611 5606 5601 5598 5596 5592 5588 5587 5585 5584 5582 5581 5580 5580 5581 5582 5582 5582 5583 5583 5586 5588 5589 5591 5594 5595 5597 5600 5603 5606 5608 5610 5612 5613 5614 5614 5615 5616 5618 5620 5621 5622 5624 5626 5628 5628 5630 5631 5632
5640 5636 5630 5626 5621 5617 5614 5610 5607 5602 5598 5596 5593 5590 5587 5586 5586 5586 5587 5588 5589 5588 5589 5591 5592 5594 5595 5597 5599 5601 5603 5604 5606 5608 5609 5611 5612 5613 5614 5615 5615 5616 5617 5619 5620 5618 5616 5618 5620 5621 5621 5621 5621 5624
5643 5639 5634 5630 5626 5622 5620 5617 5613 5610 5606 5603 5600 5597 5595 5593 5592 5592 5593 5595 5596 5596 5596 5597 5599 5601 5603 5604 5605 5606 5608 5608 5609 5610 5611 5612 5613 5613 5614 5614 5614 5614 5615 5616 5616 5617 5618 5618 5617 5617 5617 5617 5616 5617
5647 5642 5638 5635 5631 5628 5626 5622 5620 5617 5614 5612 5609 5607 5604 5603 5602 5601 5600 5600 5601 5601 5602 5604 5606 5608 5609 5610 5610 5610 5611 5611 5611 5611 5612 5613 5613 5613 5614 5614 5615 5615 5614 5614 5615 5615 5615 5614 5613 5612 5612 5612 5612 5610
5654 5650 5645 5641 5637 5634 5632 5629 5626 5624 5622 5619 5617 5615 5614 5613 5612 5610 5610 5609 5608 5609 5610 5611 5612 5612 5613 5613 5613 5614 5614 5614 5614 5613 5613 5614 5615 5614 5614 5613 5612 5612 5612 5611 5610 5609 5608 5608 5607 5607 5606 5606 5605 5604
5658 5655 5651 5646 5644 5640 5638 5636 5635 5632 5631 5627 5625 5623 5622 5620 5619 5618 5617 5616 5616 5615 5615 5615 5616 5616 5616 5616 5615 5615 5615 5614 5614 5613 5613 5613 5611 5610 5609 5608 5607 5607 5607 5606 5605 5604 5603 5602 5601 5599 5598 5597 5596 5595
5661 5659 5658 5654 5651 5647 5646 5644 5642 5640 5638 5636 5634 5633 5630 5628 5627 5627 5627 5625 5624 5624 5623 5622 5622 5621 5621 5620 5619 5618 5617 5616 5615 5614 5612 5611 5610 5608 5606 5604 5602 5601 5599 5598 5597 5595 5594 5593 5592 5590 5588 5587 5586 5585
5668 5666 5663 5658 5654 5652 5651 5649 5648 5646 5643 5642 5641 5640 5638 5637 5635 5635 5633 5632 5631 5630 5629 5627 5626 5625 5624 5622 5621 5619 5618 5616 5615 5613 5611 5610 5608 5607 5604 5602 5600 5598 5596 5593 5591 5589 5586 5584 5582 5580 5578 5576 5574 5572
5676 5672 5667 5663 5661 5658 5656 5654 5652 5651 5649 5647 5646 5645 5643 5641 5640 5639 5637 5635 5634 5632 5630 5629 5627 5625 5624 5622 5620 5619 5617 5615 5612 5610 5607 5605 5602 5600 5596 5592 5590 5589 5587 5584 5581 5578 5575 5572 5569 5567 5564 5562 5560 5558
5678 5675 5671 5669 5666 5664 5662 5660 5658 5656 5654 5653 5651 5650 5647 5646 5645 5644 5641 5638 5636 5634 5632 5630 5627 5625 5623 5620 5618 5615 5613 5609 5606 5603 5601 5597 5594 5591 5587 5583 5580 5575 5571 5570 5567 5563 5561 5557 5554 5551 5547 5543 5540 5538
5680 5677 5674 5672 5670 5668 5666 5664 5662 5660 5658 5656 5655 5653 5651 5649 5647 5644 5641 5638 5634 5631 5629 5626 5623 5620 5618 5615 5612 5609 5605 5601 5598 5594 5590 5586 5583 5581 5575 5570 5568 5564 5559 5557 5552 5548 5546 5541 5538 5534 5531 5526 5522 5518
5680 5678 5676 5674 5672 5670 5668 5666 5664 5662 5660 5658 5656 5653 5650 5647 5644 5640 5638 5635 5632 5629 5626 5622 5618 5614 5610 5606 5602 5598 5595 5590 5585 5581 5576 5570 5566 5564 5561 5556 5552 5549 5544 5541 5538 5533 5528 5524 5520 5516 5511 5506 5502 5496
5682 5680 5678 5676 5674 5672 5670 5668 5666 5663 5661 5658 5655 5652 5650 5645 5641 5638 5635 5632 5627 5623 5618 5614 5610 5605 5600 5595 5590 5585 5581 5577 5572 5567 5563 5558 5553 5549 5545 5540 5536 5532 5527 5522 5518 5516 5510 5504 5500 5495 5490 5484 5479 5474
5685 5682 5680 5678 5676 5673 5671 5669 5667 5664 5661 5658 5655 5653 5649 5645 5640 5636 5632 5628 5623 5618 5612 5607 5602 5596 5590 5584 5577 5571 5566 5562 5557 5553 5547 5543 5539 5534 5530 5526 5521 5516 5512 5507 5503 5498 5494 5489 5485 5480 5475 5469 5464 5457
5688 5685 5683 5680 5678 5676 5673 5670 5668 5665 5662 5658 5655 5651 5646 5642 5637 5631 5626 5621 5615 5610 5603 5596 5590 5583 5576 5570 5564 5557 5550 5546 5541 5537 5532 5528 5524 5521 5517 5513 5509 5505 5501 5497 5492 5488 5483 5478 5474 5468 5463 5457 5450 5442
5691 5688 5686 5683 5681 5678 5675 5672 5669 5665 5661 5657 5652 5647 5642 5636 5632 5627 5621 5614 5606 5599 5592 5586 5578 5572 5566 5560 5554 5548 5543 5538 5534 5530 5526 5522 5518 5514 5510 5506 5502 5497 5493 5489 5485 5480 5476 5470 5465 5459 5453 5446 5438 5429
5692 5690 5687 5685 5682 5679 5676 5673 5669 5666 5661 5657 5652 5647 5642 5637 5631 5624 5616 5609 5600 5592 5584 5579 5573 5567 5561 5555 5549 5543 5539 5534 5529 5525 5521 5517 5513 5509 5505 5501 5497 5493 5489 5484 5479 5474 5469 5464 5458 5452 5446 5439 5431 5422
Wind_Speed
61 59 54 45 37 31 24 17 15 15 14 16 19 16 15 14 16 15 16 16 16 14 14 20 24 23 23 20 22 19 26 28 37 43 56 56 45 45 42 38 53 56 56 51 41 41 40 38 39 40 35 39 27 23
56 51 43 39 32 25 21 22 18 13 15 16 14 14 13 19 17 13 13 15 18 18 14 16 23 20 19 21 23 26 27 26 38 26 36 49 34 33 43 38 37 52 55 46 34 36 43 48 43 41 34 38 30 25
49 46 39 33 29 29 26 21 17 15 13 12 12 10 10 7 6 5 5 7 9 9 13 15 22 21 20 18 16 20 27 26 40 36 38 45 37 30 49 34 32 44 39 40 43 45 49 47 44 30 30 31 28 32
44 42 35 29 28 25 22 19 16 13 11 9 8 6 6 2 2 2 2 5 7 8 13 17 21 20 20 17 14 14 17 23 36 38 45 50 46 17 54 45 47 41 54 47 57 59 55 50 41 34 30 34 34 35
40 36 31 28 25 25 23 19 15 12 11 9 8 8 7 4 3 3 5 6 2 7 11 13 16 15 15 18 19 20 19 21 34 34 48 59 47 33 61 16 59 33 45 45 55 50 48 44 38 30 30 34 34 35
33 31 27 25 26 27 22 19 16 12 11 12 12 10 10 12 11 8 7 4 8 13 17 18 16 16 18 18 20 21 22 24 32 29 48 46 49 27 34 36 60 35 29 60 34 33 32 36 34 29 28 34 36 39
28 27 26 27 27 24 22 19 17 14 14 14 12 13 12 14 9 10 9 7 15 16 18 17 14 9 12 15 20 23 25 33 26 26 31 43 32 34 35 41 43 40 32 26 31 33 32 31 30 33 35 32 37 43
27 27 29 29 27 24 22 20 17 16 16 14 17 19 12 9 15 12 12 14 14 15 13 14 17 11 10 13 19 22 29 25 16 26 28 18 23 32 33 35 35 33 33 29 29 30 30 31 38 40 40 34 37 46
28 30 31 28 26 25 24 23 21 19 17 17 16 13 14 17 16 15 18 19 16 16 16 15 12 9 23 8 8 24 24 17 24 32 29 5 16 33 33 33 31 30 31 30 30 30 33 33 32 38 43 50 50 54
30 29 27 24 24 23 22 22 22 20 18 13 14 16 16 18 25 26 19 14 14 10 9 6 9 14 20 17 17 28 15 13 26 20 10 9 12 34 31 29 30 32 31 31 30 28 29 42 31 46 47 29 37 48
33 32 28 25 24 22 22 22 22 22 22 19 18 17 21 24 24 22 21 19 19 19 19 17 14 25 25 24 26 17 10 21 33 12 9 11 19 26 34 30 29 30 30 27 26 20 18 16 28 24 37 30 21 27
30 29 28 29 28 25 22 21 22 21 20 20 20 19 17 16 24 20 19 16 22 23 16 14 22 27 25 19 18 23 21 17 17 8 5 10 20 25 25 27 30 31 31 29 23 15 20 19 19 18 29 36 36 34
25 30 31 31 32 32 29 24 23 22 20 19 17 13 11 20 21 24 26 18 12 11 11 10 19 21 17 26 25 17 11 14 17 22 20 20 18 20 17 27 26 24 26 31 31 27 28 22 22 24 27 26 24 21
18 22 27 28 27 27 26 24 26 21 20 21 18 14 13 15 16 14 14 14 13 15 20 8 12 16 21 16 16 26 12 13 16 15 10 16 16 11 14 16 16 27 26 26 30 42 31 18 12 9 13 19 25 21
23 21 20 22 24 24 24 21 23 27 19 23 21 18 16 13 10 8 11 13 14 12 18 21 18 16 12 18 14 18 15 14 15 15 17 11 14 12 4 3 1 9 20 22 29 28 21 18 13 8 9 13 16 19
25 22 20 20 22 20 21 20 18 19 13 18 19 15 12 8 7 8 9 15 16 15 17 16 14 17 11 12 11 19 22 17 18 18 13 12 12 10 7 6 3 1 4 9 7 13 10 11 13 15 16 16 17 19
24 22 21 20 20 21 24 24 22 15 17 15 13 13 11 11 10 9 13 16 13 15 14 12 14 18 19 16 18 19 18 16 10 14 14 12 7 6 7 6 3 2 0 2 6 7 8 9 12 13 14 15 16 17
22 22 19 17 19 20 21 22 22 24 26 25 23 20 13 12 13 13 17 14 11 9 12 13 16 20 21 22 21 21 19 18 17 17 11 7 6 4 5 3 2 3 5 9 10 7 5 8 10 11 13 14 15 17
19 18 17 18 17 18 19 18 20 21 24 24 24 27 29 26 21 19 16 11 9 7 11 12 10 14 15 15 15 14 13 9 9 8 6 5 6 7 9 10 11 7 4 4 7 8 10 12 13 14 16 18 21 21
27 22 17 15 17 17 17 19 18 18 21 21 24 26 27 27 27 26 22 18 18 19 19 15 13 13 12 12 12 9 7 6 5 3 1 3 4 4 3 3 4 6 9 11 13 14 15 15 17 18 20 22 24 25
24 27 28 18 16 18 20 20 21 20 20 20 22 23 23 24 25 25 24 25 26 25 21 18 15 14 11 10 9 7 5 2 1 3 2 2 4 7 9 10 12 14 16 17 19 19 18 18 19 19 19 21 24 27
19 21 25 25 21 18 18 19 20 20 20 26 26 25 24 24 24 23 24 22 18 18 19 18 15 13 11 9 8 6 4 5 5 5 4 6 8 10 12 14 16 17 18 19 21 21 21 21 22 23 24 26 27 29
22 19 17 16 19 22 25 23 21 20 22 28 25 23 23 23 24 25 22 22 22 19 18 17 14 12 10 8 6 6 6 6 7 7 8 9 11 13 15 16 17 18 20 20 23 24 26 27 28 30 31 32 32 34
21 17 16 21 21 21 19 20 19 18 20 20 19 19 19 17 15 14 14 12 11 9 9 9 7 6 6 6 5 6 6 6 7 8 10 11 12 13 15 17 20 20 21 24 25 26 28 29 30 32 32 34 35 35
18 21 23 24 21 19 17 16 15 17 17 17 14 14 15 15 14 12 12 11 10 9 7 6 7 8 8 8 7 7 8 9 10 11 12 15 19 22 25 27 24 25 28 31 33 35 36 37 38 39 40 41 41 42
13 19 22 21 20 19 18 16 14 14 14 14 14 15 16 14 11 10 10 10 11 12 13 14 14 12 12 13 16 17 19 18 20 24 24 27 28 31 35 38 38 41 41 41 40 40 40 42 44 46 47 49 50 51
9 12 16 17 18 16 14 15 15 15 13 13 13 14 15 14 15 14 9 11 18 17 15 15 17 16 16 18 21 24 28 31 33 34 36 38 38 36 39 41 39 37 40 39 40 42 41 43 45 46 48 50 52 53
10 11 12 14 14 15 15 14 13 11 12 12 11 14 19 15 12 13 9 11 18 17 17 19 21 24 29 35 38 36 33 34 35 36 37 40 41 39 38 40 42 42 44 44 44 46 48 49 50 52 53 55 56 58
13 12 11 13 11 11 12 12 13 13 14 15 18 20 21 19 17 14 17 18 21 24 25 26 30 33 39 42 42 42 41 39 40 40 41 42 42 44 44 45 46 47 48 50 51 51 51 53 54 54 54 55 55 55
14 15 14 13 14 14 15 15 15 16 18 19 17 19 19 19 19 20 21 21 24 26 29 31 33 35 38 40 42 44 44 43 43 43 43 43 43 43 44 44 44 44 43 42 40 40 37 37 38 39 41 43 44 46
18 17 18 17 17 16 17 17 18 20 22 23 24 24 24 24 25 28 29 32 34 36 39 42 43 44 44 43 41 39 38 36 34 32 31 30 29 28 27 26 26 26 27 29 30 30 30 29 29 30 32 35 38 42
17 18 18 18 18 20 21 20 21 23 27 28 29 30 32 33 35 35 37 41 43 45 45 43 40 36 34 34 32 29 27 27 25 23 23 24 24 23 23 23 24 25 25 23 23 24 25 26 28 31 34 37 41 40
17 18 18 19 20 21 22 23 23 25 27 28 30 31 31 32 35 39 42 41 39 36 33 31 29 27 27 29 29 27 25 23 23 23 22 21 21 21 21 21 20 20 21 22 24 24 25 26 28 30 32 35 37 35
Wind_Direction
334 335 342 341 342 337 337 334 330 317 311 308 295 291 283 282 274 271 260 263 262 268 244 236 215 200 207 197 189 209 223 225 219 218 214 206 207 205 199 206 212 215 216 217 220 221 223 231 236 241 233 236 246 251
337 337 343 350 352 351 351 340 334 332 314 305 304 292 273 275 279 275 260 248 227 253 234 224 200 192 197 196 185 198 199 202 202 203 203 199 183 198 188 186 212 218 219 215 220 234 227 228 234 233 239 241 247 237
342 342 343 344 345 342 341 339 338 331 324 320 317 313 299 296 286 260 246 224 219 212 213 201 189 183 184 182 181 191 184 185 193 189 192 186 170 197 183 173 202 211 215 214 215 222 226 226 238 240 243 239 243 238
341 344 346 351 352 352 351 350 347 348 353 354 356 349 333 359 107 115 227 222 174 177 186 190 184 179 179 177 186 179 182 181 186 186 190 174 175 190 176 185 202 207 196 201 212 219 223 228 234 250 248 241 246 237
344 346 348 351 353 352 353 356 0 7 12 19 19 42 60 77 89 110 129 148 147 185 180 174 159 164 160 173 180 182 188 179 181 186 183 180 196 195 178 244 200 180 180 194 219 221 227 232 241 243 244 241 244 230
352 355 357 358 353 359 6 10 14 28 36 48 58 65 69 54 51 60 105 119 136 148 146 147 151 155 165 175 180 186 179 171 174 179 186 183 192 197 208 192 179 185 175 198 228 218 234 241 240 237 243 240 240 212
6 4 1 359 0 6 15 25 36 45 51 55 56 56 55 60 64 104 118 122 130 133 137 140 119 177 179 186 189 193 179 162 156 188 195 193 197 194 190 204 207 215 220 215 221 224 226 239 248 246 238 241 230 222
10 10 8 11 15 23 30 36 40 46 51 50 72 77 70 72 81 97 105 116 122 128 138 144 156 151 155 179 182 186 173 148 168 187 170 172 210 213 197 185 193 202 211 216 218 218 225 235 242 246 249 244 227 218
13 10 11 23 32 36 36 40 49 54 63 88 78 64 74 89 92 94 91 85 100 109 102 100 114 130 113 135 171 170 147 123 167 176 170 217 183 203 197 191 192 200 207 215 217 221 225 227 240 235 216 206 212 209
11 10 17 22 24 38 46 50 52 57 62 66 74 76 87 86 100 92 76 121 67 78 122 132 136 125 138 144 152 172 144 136 165 152 209 194 175 197 189 191 194 200 209 214 215 232 246 232 214 213 217 214 218 231
21 21 24 32 38 45 54 59 61 64 62 69 79 88 99 103 84 80 83 97 81 72 66 60 100 136 137 132 132 124 128 159 171 135 129 160 149 184 191 194 197 202 211 220 231 239 250 231 224 239 220 222 230 214
31 38 43 41 38 40 47 63 70 70 68 71 74 85 83 72 81 86 81 63 60 56 52 79 95 109 112 104 116 116 100 134 123 162 164 149 136 179 186 198 208 210 218 218 227 236 260 262 230 261 224 222 223 237
40 40 36 39 41 42 46 56 69 77 80 80 81 77 58 47 44 59 75 89 80 101 66 101 89 113 102 99 118 151 122 127 121 123 118 160 114 127 144 191 201 213 221 227 235 237 243 218 188 194 200 195 190 192
35 36 31 30 35 43 46 55 53 63 67 65 66 72 74 57 53 51 49 51 63 90 77 101 100 142 135 133 123 110 83 135 128 123 121 106 103 118 160 144 158 198 216 212 226 224 197 172 170 158 170 184 189 197
26 29 28 31 30 33 38 59 55 49 66 64 67 75 70 57 47 35 32 54 81 69 57 104 108 113 129 142 101 110 80 109 111 116 103 90 101 80 96 218 58 139 162 176 192 187 187 181 185 216 218 227 228 219
24 25 26 26 28 25 27 42 53 45 66 70 68 68 80 73 69 73 70 91 99 80 74 94 88 98 100 122 104 98 87 100 106 111 123 113 121 129 88 61 34 289 256 260 261 214 198 204 215 224 226 239 244 244
24 22 21 26 32 39 39 41 43 47 57 66 65 68 71 86 89 104 117 113 104 74 82 101 98 90 84 91 82 94 86 94 137 104 122 130 124 121 108 92 10 33 335 284 267 272 236 240 240 243 246 248 254 258
21 25 26 30 33 37 43 48 54 62 60 54 45 44 60 89 101 115 131 126 123 69 74 103 89 108 85 99 104 100 91 102 117 131 150 137 171 195 206 207 260 326 264 248 264 262 277 266 261 264 270 274 272 268
18 20 28 37 41 47 49 53 57 54 56 56 55 59 68 79 95 111 128 138 133 109 106 118 92 116 88 90 109 119 125 119 118 122 145 177 218 231 246 258 251 246 287 271 274 269 261 261 267 271 273 275 275 274
32 31 35 41 48 52 54 56 57 59 58 59 58 61 65 67 72 81 92 103 109 107 106 108 103 100 91 88 89 100 108 106 103 104 149 229 231 235 222 211 229 250 265 270 272 272 274 277 275 274 273 272 272 272
38 38 40 50 56 58 57 58 59 62 61 63 62 61 64 70 72 74 75 76 81 92 102 104 111 111 113 116 124 136 145 139 277 308 270 245 247 250 262 270 276 275 274 277 281 282 282 282 282 281 277 273 271 270
39 35 33 45 62 67 59 57 59 58 60 68 67 67 69 72 72 70 73 77 81 77 78 81 87 89 82 73 66 51 16 341 335 346 311 305 300 298 299 297 292 287 282 282 283 283 280 282 282 283 285 283 277 273
41 38 33 56 63 72 69 64 62 71 77 58 69 71 69 64 82 69 71 73 70 63 59 61 64 67 51 43 44 23 13 359 343 335 329 321 314 311 309 307 304 301 297 292 288 286 283 281 280 280 280 278 275 273
44 41 50 60 64 70 71 69 64 64 57 56 64 65 64 62 58 56 61 72 63 66 40 39 43 37 25 12 359 348 335 325 320 318 316 316 315 313 308 305 300 295 295 290 288 287 285 284 283 282 280 279 278 277
42 52 52 54 55 57 58 59 60 59 58 59 61 66 63 62 62 61 62 61 58 47 41 37 25 9 351 337 322 312 305 299 298 299 299 305 308 309 310 307 295 294 300 295 294 292 290 288 286 283 281 280 278 278
37 43 45 44 45 46 48 49 51 64 65 61 60 57 57 56 42 35 25 6 4 3 358 352 342 328 318 313 308 303 298 293 297 295 293 292 292 295 297 298 299 300 299 297 295 292 289 288 286 285 284 283 282 280
18 31 31 30 36 40 42 46 41 40 40 36 33 30 21 4 6 358 355 352 12 359 335 326 325 314 305 306 308 306 302 298 298 297 291 290 291 293 294 293 294 295 293 294 293 292 292 290 289 288 287 286 285 284
38 26 25 28 28 32 35 33 23 23 15 7 0 353 346 337 329 294 304 324 319 315 322 323 317 310 309 312 313 308 303 300 299 300 300 299 298 298 298 297 296 295 294 293 294 294 293 292 292 290 289 287 286 285
47 27 27 30 22 29 23 14 9 360 349 345 343 348 344 340 345 324 313 316 326 326 323 317 313 304 302 305 306 304 303 304 303 301 301 301 300 300 300 299 299 298 297 297 295 294 294 293 292 292 292 292 291 291
36 36 39 30 25 21 19 19 16 10 8 8 9 2 357 354 352 347 345 338 332 328 323 319 315 312 310 310 310 308 307 307 305 303 301 300 299 298 297 296 295 296 297 298 299 300 301 301 301 301 300 300 299 298
48 46 43 39 34 32 29 21 18 15 10 5 359 355 356 357 354 352 347 341 335 330 327 324 321 320 318 317 315 312 311 311 311 311 311 311 313 313 314 314 314 313 311 310 310 311 312 314 316 317 317 316 316 314
36 35 33 32 29 20 17 16 14 10 5 3 2 0 359 357 354 348 342 336 332 329 327 327 329 332 334 335 334 332 329 328 327 327 325 325 326 326 327 326 324 323 324 325 324 322 322 322 324 325 327 329 330 328
27 24 21 20 17 15 15 14 12 9 4 3 1 -0 356 350 346 342 339 338 335 336 341 344 346 349 351 350 350 350 351 348 343 342 341 339 337 337 336 336 336 334 332 331 332 332 333 333 334 335 335 336 338 339